Погода в Юрмах

Россия / Тюменская область     57°23′04″N   68°05′47″E
темп.,
°C
ветер,
м/с
пор.,
м/с
влажн.,
%
обл.,
%
осадки,
мм/ч
давл.,
гПа
погр.,
м
8 марта, пн
пн823:00−10ссв4895100 1.8 1001343
02:00−11ссз4994100 0.9 1000413
05:00−13зсз4995100 1.0 1003362
08:00−17з3897100 0.1 1005239
11:00−13з3793100 0.1 1007376
14:00−10зюз3685100 0.0 1008764
17:00−10юз3688100 0.1 1009698
20:00−12ююз3993100 0.0 1009385
9 марта, вт
вт923:00−13ю3109398 0.1 1008401
02:00−11ю4119499 0.2 1006485
05:00−7ююз5139299 0.5 1005748
08:00−8ююз5139196 0.1 1005583
11:00−4юз5108489 0.1 10051044
14:00−3ююз5992100 0.7 1005873
17:00−4ююз51093100 1.4 1004841
20:00−5зюз4996100 1.3 1005551
10 марта, ср
ср1023:00−10з399472 1.7 1008215
02:00−15з23968 0.0 101067
05:00−17з229836 0.0 101120
08:00−17ссз0197100 0.0 101120
11:00−12всв1291100 0.0 1010230
14:00−9св2393100 0.1 1008358
17:00−10св3594100 0.2 1006330
20:00−13ссв2597100 0.1 1006169
11 марта, чт
чт1123:00−14ссв3696100 0.3 1005246
02:00−16ссв3796100 0.5 1004283
05:00−18ссв3797100 0.8 1005266
08:00−19ссв3698100 0.5 1005248
11:00−18с3696100 0.9 1006319
14:00−16с4694100 0.4 1006414
17:00−18ссз4795100 0.8 1007441
20:00−21ссз3895100 0.1 1009342
12 марта, пт
пт1223:00−25сз2598100 0.1 101191
02:00−29зсз23984 0.0 101327
05:00−29з229918 0.0 101419
08:00−27зюз119999 0.0 101619
11:00−19юз139092 0.0 1017335
14:00−14юз248199 0.0 1018720
17:00−12юз2589100 0.1 1018635
20:00−15ю239692 0.0 101949